This demonstration page uses our WeatherBlox Daily Observations layout. Learn more.

41.55636, -103.73856

Hourly Observations for August 28, 2018

Temp ( °F °C ) Dew Point ( °F °C ) Humidity (%) Winds ( mph kmh ) Pressure ( in mb ) Visibility ( mi km ) Precip ( " mm )
12:58 am 00:58 Mostly Cloudy 53 11.9 45 7 72 72 N 13 20 29.88 1012 10 16.09344 0 0
1:58 am 01:58 Mostly Cloudy 53 11.5 43 6.1 70 70 N 14 22 29.88 1012 10 16.09344 0 0
2:58 am 02:58 Clear 50 10.2 42 5.7 74 74 N 14 22 29.88 1012 10 16.09344 0 0
3:58 am 03:58 Clear 47 8.6 42 5.4 81 81 N 9 15 29.91 1013 10 16.09344 0 0
4:58 am 04:58 Clear 47 8.2 42 5.8 85 85 N 12 19 29.91 1013 10 16.09344 0 0
5:58 am 05:58 Clear 46 7.8 42 5.7 87 87 N 8 13 29.94 1014 10 16.09344 0 0
6:58 am 06:58 Mostly Cloudy 49 9.2 44 6.6 84 84 N 12 19 29.97 1015 10 16.09344 0 0
7:58 am 07:58 Sunny 51 10.6 44 6.9 78 78 N 10 17 30 1016 10 16.09344 0 0
8:58 am 08:58 Sunny 54 12.4 44 6.9 69 69 N 13 20 30.03 1017 10 16.09344 0 0
9:58 am 09:58 Mostly Sunny 57 14 44 6.5 61 61 N 13 20 30.03 1017 10 16.09344 0 0
10:58 am 10:58 Sunny 61 16.3 44 6.5 53 53 NNW 14 22 30.06 1018 10 16.09344 0 0
11:58 am 11:58 Sunny 62 16.6 42 5.7 49 49 N 13 20 30.06 1018 10 16.09344 0 0
12:58 pm 12:58 Sunny 64 17.9 44 6.4 47 47 NNE 10 17 30.06 1018 10 16.09344 0 0
1:58 pm 13:58 Sunny 63 17 43 6.2 49 49 N 10 17 30.06 1018 10 16.09344 0 0
2:58 pm 14:58 Mostly Sunny 66 18.7 43 6.3 45 45 N 12 19 30.06 1018 10 16.09344 0 0
3:58 pm 15:58 Mostly Sunny 67 19.4 43 6.3 43 43 NNE 10 17 30.06 1018 10 16.09344 0 0
4:58 pm 16:58 Sunny 67 19.5 42 5.8 41 41 Calm 30.06 1018 10 16.09344 0 0
5:58 pm 17:58 Partly Cloudy 66 18.9 43 6.3 44 44 ESE 6 9 30.06 1018 10 16.09344 0 0
6:58 pm 18:58 Sunny 62 16.9 45 7 52 52 SE 7 11 30.06 1018 10 16.09344 0 0
7:58 pm 19:58 Clear 58 14.2 44 6.8 61 61 ESE 8 13 30.09 1019 10 16.09344 0 0
8:58 pm 20:58 Clear 55 12.8 45 7.2 69 69 SSE 7 11 30.09 1019 10 16.09344 0 0
9:58 pm 21:58 Clear 54 12 45 7.3 73 73 SSE 7 11 30.12 1020 10 16.09344 0 0
10:58 pm 22:58 Clear 50 9.9 44 6.8 81 81 SSE 8 13 30.12 1020 10 16.09344 0 0
11:58 pm 23:58 Clear 50 10.1 44 6.8 80 80 S 9 15 30.09 1019 10 16.09344 0 0

Powered by AerisWeather